Altus AFB, OK

11:45 PM CST on December 17, 2017 (GMT -0600)
Altus Air Force Base

Weather History for KLTS - September, 2013

Change the Weather History Date:

Monday, September 9, 2013

  Actual Average Record
Temperature  
Mean Temperature 82 °F -  
Max Temperature 95 °F 87 °F 98 °F (2016)
Min Temperature 68 °F 65 °F 50 °F (2004)
Cooling Degree Days 16    
Growing Degree Days 32 (Base 50)    
Moisture  
Dew Point 60 °F    
Average Humidity 48    
Maximum Humidity 77    
Minimum Humidity 29    
Precipitation  
Precipitation 0.00 in - - ()
Sea Level Pressure  
Sea Level Pressure 29.91 in    
Wind  
Wind Speed 9 mph (SSE)    
Max Wind Speed 20 mph    
Max Gust Speed 25 mph    
Visibility 10 miles    
Events      
Averages and records for this station are not official NWS values.
T = Trace of Precipitation, MM = Missing Value Source: NWS Daily Summary

Daily Weather History Graph

Daily Weather History Graph

Search for Another Location

Airport or City:

Trip Planner

Search our weather history database for the weather conditions in past years. The results will help you decide how hot, cold, wet, or windy it might be!

Date:

Astronomy

Sep. 09, 2013 Rise Set
Actual Time 7:16 AM CDT 7:51 PM CDT
Civil Twilight 6:50 AM CDT 8:17 PM CDT
Nautical Twilight 6:20 AM CDT 8:47 PM CDT
Astronomical Twilight 5:50 AM CDT 9:17 PM CDT
Moon 11:26 AM CDT (9/9) 10:23 PM CDT (9/9)
Length of Visible Light 13h 26m
Length of Day
12h 35m
Waxing Crescent, 19% of the Moon is Illuminated
Sep 9
Waxing Crescent
Sep 12
First Quarter
Sep 19
Full
Sep 26
Last Quarter
Oct 4
New

Hourly Weather History & Observations

Time (CDT) Temp. Heat Index Dew Point Humidity Pressure Visibility Wind Dir Wind Speed Gust Speed Precip Events Conditions
12:58 AM 76.5 °F - 60.1 °F 57% 29.89 in 10.0 mi SSE 5.8 mph - N/A   Clear
1:58 AM 73.9 °F - 60.3 °F 62% 29.89 in 10.0 mi SE 3.5 mph - N/A   Clear
2:58 AM 71.6 °F - 59.4 °F 65% 29.89 in 10.0 mi SE 3.5 mph - N/A   Clear
3:58 AM 70.5 °F - 59.5 °F 68% 29.89 in 10.0 mi South 3.5 mph - N/A   Clear
4:58 AM 70.5 °F - 59.9 °F 69% 29.90 in 10.0 mi South 5.8 mph - N/A   Clear
5:58 AM 68.7 °F - 59.9 °F 73% 29.91 in 10.0 mi ESE 3.5 mph - N/A   Clear
6:58 AM 68.4 °F - 60.8 °F 77% 29.92 in 10.0 mi SE 5.8 mph - N/A   Clear
7:58 AM 71.1 °F - 62.6 °F 75% 29.94 in 10.0 mi SE 6.9 mph - N/A   Clear
8:58 AM 76.8 °F - 64.4 °F 65% 29.95 in 10.0 mi South 9.2 mph - N/A   Clear
9:58 AM 83.7 °F 84.9 °F 63.9 °F 51% 29.94 in 10.0 mi SSW 11.5 mph - N/A   Clear
10:58 AM 86.9 °F 88.1 °F 63.7 °F 46% 29.95 in 10.0 mi Variable 6.9 mph - N/A   Clear
11:58 AM 89.6 °F 89.5 °F 61.2 °F 38% 29.94 in 10.0 mi South 15.0 mph 20.7 mph N/A   Clear
12:45 PM 91.4 °F 91.4 °F 60.8 °F 36% 29.98 in 10.0 mi South 15.0 mph 23.0 mph N/A   Clear
12:58 PM 91.4 °F 91.4 °F 60.8 °F 36% 29.93 in 10.0 mi SSE 12.7 mph 25.3 mph N/A   Clear
1:26 PM 93.2 °F 92.6 °F 59.0 °F 32% 29.97 in 10.0 mi SE 13.8 mph 23.0 mph N/A   Clear
1:53 PM 93.2 °F 93.3 °F 60.8 °F 34% 29.97 in 10.0 mi South 17.3 mph 23.0 mph N/A   Partly Cloudy
1:58 PM 93.6 °F 93.4 °F 60.1 °F 33% 29.92 in 10.0 mi South 17.3 mph 23.0 mph N/A   Scattered Clouds
2:58 PM 93.2 °F 92.6 °F 59.2 °F 32% 29.89 in 10.0 mi SSE 17.3 mph 25.3 mph N/A   Partly Cloudy
3:58 PM 95.4 °F 94.6 °F 58.6 °F 29% 29.87 in 10.0 mi SSE 19.6 mph 24.2 mph N/A   Scattered Clouds
4:58 PM 93.7 °F 92.6 °F 57.6 °F 30% 29.85 in 10.0 mi South 16.1 mph 21.9 mph N/A   Scattered Clouds
5:58 PM 94.3 °F 93.0 °F 57.9 °F 29% 29.85 in 10.0 mi SSE 17.3 mph 23.0 mph N/A   Partly Cloudy
6:58 PM 92.1 °F 90.8 °F 57.6 °F 31% 29.85 in 10.0 mi SSE 17.3 mph - N/A   Clear
7:58 PM 88.9 °F 88.0 °F 58.5 °F 36% 29.85 in 10.0 mi SSE 13.8 mph - N/A   Clear
8:58 PM 86.2 °F 85.4 °F 58.8 °F 39% 29.87 in 10.0 mi SSE 11.5 mph - N/A   Clear
9:58 PM 82.8 °F 82.8 °F 59.4 °F 45% 29.89 in 10.0 mi SE 8.1 mph - N/A   Clear
10:58 PM 80.2 °F 80.8 °F 59.0 °F 48% 29.90 in 10.0 mi SSE 9.2 mph - N/A   Clear
11:58 PM 77.5 °F - 59.5 °F 54% 29.91 in 10.0 mi SSE 6.9 mph - N/A   Clear